Location: Colorado Springs
(38.8340°N, 104.8210°W)
Time: 16:03:18
(UTC-07:00)

Envisat - Pass Details

Date: 12 October 2017
Orbit: 764 x 766 km, 98.2° (Epoch: 11 December)

Event Time Altitude Azimuth Distance (km) Brightness Sun altitude
Exits shadow 19:33:54 17° 62° (ENE) 1,862 4.5 -14.3°
Drops below altitude 10° 19:37:01 10° 24° (NNE) 2,311 5.3 -14.9°
Sets 19:40:03 0° 5° (N) 3,243 6.2 -15.5°
